#timestamp,LO_Frequency,Hit,StdDev 
1561014015.4,286046979.4,N
1561014035.3,286046975.9,N
1561014055.1,286046969.5,Y
1561014075.9,286046976.4,P
1561014095.7,286046974.4,P
1561014115.5,286046975.4,P
1561014135.4,286046975.6,Y
1561014155.2,286046992.6,P
1561014175.0,286046993.7,N
1561014175.9,286046993.7,N
1561014195.8,286046995.2,N
1561014215.6,286046995.0,N
1561014235.5,286046997.5,N
1561014255.3,286046999.2,N
1561014275.1,286046996.9,N
1561014295.9,286046998.8,N
1561014315.7,286047001.0,N
1561014335.5,286046998.5,N
1561014355.4,286046995.9,N
1561014375.2,286046991.4,N
1561014395.1,286046988.9,N
1561014396.0,286046988.9,N
1561014415.8,286046987.9,N
1561014435.6,286046988.5,N
1561014455.5,286046994.8,N
1561014475.3,286046993.7,N
1561014495.2,286046996.4,N
1561014515.9,286046995.2,N
1561014565.8,286046999.5,E
1561014575.7,286046997.0,N
1561014595.5,286046994.1,P
1561014615.4,286046989.1,P
1561014635.2,286046984.6,Y
1561014655.0,286046985.4,P
1561014655.9,286046985.4,P
1561014675.8,286046984.3,P
1561014695.6,286046979.5,Y
1561014715.5,286046991.1,P
1561014735.3,286046993.1,P
1561014755.1,286046992.8,N
1561014775.9,286046996.0,N
1561014795.7,286046990.1,Y
1561014815.6,286046995.8,P
1561014835.4,286046995.6,N
1561014855.2,286046993.6,P
1561014875.1,286046991.9,Y
1561014876.0,286046991.9,P
1561014895.8,286046997.1,N
1561014915.7,286046994.9,N
1561014935.5,286046993.8,Y
1561014955.3,286046999.5,P
1561014975.2,286046996.2,N
1561014995.0,286046994.2,N
1561014995.9,286046994.2,N
1561015015.7,286046994.8,N
1561015035.6,286046994.6,N
1561015055.4,286047000.1,N
1561015075.3,286047000.1,N
1561015095.1,286047003.8,N
1561015096.0,286047003.8,N
1561015115.8,286047001.0,N
1561015135.7,286046995.1,N
1561015155.5,286046992.5,N
1561015175.4,286046990.8,N
1561015195.2,286046991.9,N
1561015215.0,286046992.6,N
1561015215.9,286046992.6,N
1561015235.8,286046994.3,N
1561015255.6,286046993.4,N
1561015275.4,286046992.4,N
1561015295.3,286046988.7,N
1561015315.1,286046988.7,N
1561015335.9,286046989.0,N
1561015355.7,286046988.4,N
1561015375.5,286046984.5,Y
1561015395.4,286046989.3,P
1561015415.2,286046989.3,P
1561015435.0,286046991.1,P
1561015436.0,286046991.1,Y
1561015455.8,286046994.9,P
1561015475.6,286046993.4,P
1561015495.5,286046999.1,N
1561015515.3,286046999.9,N
1561015535.1,286046998.5,N
1561015555.9,286046996.0,N
1561015575.7,286046991.9,N
1561015595.6,286046992.7,N
1561015615.4,286046988.5,Y
1561015635.2,286046991.8,P
1561015655.1,286046989.2,P
1561015656.0,286046989.2,P
1561015675.8,286046984.5,Y
1561015695.7,286046991.5,P
1561015715.5,286046987.5,P
1561015735.3,286046988.0,P
1561015755.2,286046986.5,Y
1561015775.0,286046990.6,P
1561015775.9,286046990.6,P
1561015795.8,286046991.5,P
1561015815.6,286046991.8,Y
1561015835.4,286047010.4,P
1561015855.3,286047009.6,N
1561015875.1,286047005.4,N
1561015895.8,286047000.6,N
1561015915.7,286046998.7,N
1561015935.5,286047000.6,N
1561015955.4,286047004.0,N
1561015975.2,286047004.6,N
1561015995.0,286047006.0,N
1561015995.9,286047006.0,N
1561016015.8,286047000.6,N
1561016035.6,286046996.2,N
1561016055.5,286046992.0,N
1561016075.3,286046989.1,N
1561016095.1,286046986.6,N
1561016115.9,286046982.5,N
1561016135.7,286046979.2,N
1561016155.5,286046982.2,N
1561016175.4,286046986.8,N
1561016195.2,286046979.2,N
1561016215.1,286046977.2,N
1561016216.0,286046977.2,N
1561016235.8,286046975.0,N
1561016255.6,286046973.2,N
1561016275.5,286046971.4,N
1561016295.3,286046972.4,N
1561016315.1,286046972.3,N
1561016335.9,286046978.0,N
1561016355.7,286046976.4,N
1561016375.6,286046973.0,N
1561016395.4,286046973.0,N
1561016415.2,286046977.2,N
1561016435.1,286046973.2,N
1561016436.0,286046973.2,N
1561016455.8,286046969.2,N
1561016475.7,286046963.0,Y
1561016495.5,286046975.7,P
1561016515.3,286046976.2,P
1561016535.2,286046985.0,P
1561016555.0,286046984.1,Y
1561016555.9,286046986.3,P
1561016575.7,286047004.6,N
1561016595.6,286047005.7,N
1561016615.4,286047004.1,N
1561016635.3,286046998.5,N
1561016655.1,286046996.9,N
1561016675.9,286046998.8,N
1561016695.7,286046999.2,N
1561016715.5,286046997.3,N
1561016735.4,286047001.9,N
1561016755.2,286047008.0,N
1561016775.0,286047012.8,N
1561016776.0,286047012.8,N
1561016795.8,286047010.1,N
1561016815.6,286047007.5,N
1561016835.5,286047001.7,N
1561016855.3,286046997.1,N
1561016875.1,286046997.0,N
1561016895.9,286046994.3,N
1561016915.7,286046987.1,N
1561016935.6,286046987.6,N
1561016955.4,286046984.1,N
1561016975.2,286046983.2,N
1561016995.1,286046980.8,N
1561016996.0,286046980.8,N
1561017015.8,286046981.5,N
1561017035.6,286046980.8,N
1561017055.5,286046982.7,N
1561017075.3,286046979.3,N
1561017095.2,286046980.4,N
1561017115.9,286046979.2,N
1561017135.7,286046980.1,N
1561017155.6,286046979.1,N
1561017175.4,286046981.4,N
1561017195.2,286046984.8,N
1561017215.1,286046983.5,N
1561017216.0,286046983.5,N
1561017235.8,286046984.3,N
1561017255.7,286046987.6,N
1561017275.5,286046982.4,N
1561017295.3,286046979.1,N
1561017315.2,286046981.5,N
1561017335.0,286046979.3,N
1561017335.9,286046979.3,N
1561017355.8,286046977.5,Y
1561017375.6,286046989.2,P
1561017395.4,286046987.1,P
1561017415.3,286046986.4,P
1561017435.1,286046982.9,Y
1561017455.9,286046991.9,P
1561017475.7,286046996.7,N
1561017495.5,286046999.1,N
1561017515.4,286046994.9,N
1561017535.2,286046997.9,N
1561017555.0,286046996.3,N
1561017555.9,286046996.3,N
1561017575.8,286046996.3,N
1561017595.6,286046996.2,N
